Regional Weather Roundup
Issued by NWS

Home | Current Version | Previous Version | Graphics & Text | Print | Product List | Glossary On
Versions: 1 2 3 4 5 6 7 8 9 10 11 12 13 14 15 16 17 18 19 20 21 22 23 24 25 26 27 28 29 30 31 32 33 34 35 36 37 38 39 40 41 42 43 44 45 46 47 48 49 50
000
ASUS43 KTOP 190208
RWRKS

WEATHER ROUNDUP FOR KANSAS
NATIONAL WEATHER SERVICE GOODLAND KS
900 PM CDT SAT APR 18 2015

NOTE:  "FAIR" INDICATES FEW OR NO CLOUDS BELOW 12,000 FEET WITH NO
SIGNIFICANT WEATHER AND/OR OBSTRUCTIONS TO VISIBILITY.

KSZ001>006-013>018-027>032-041>047-190300-
NORTHWEST KANSAS

CITY           SKY/WX    TMP DP  RH WIND       PRES   REMARKS
GOODLAND       MOCLDY    48  44  86 N12       29.81R
HAYS           CLOUDY    54  43  66 SE7       29.79R
HILL CITY      CLOUDY    54  48  80 E7        29.79R
RUSSELL        CLOUDY    53  48  83 SE15      29.76R
$$

KSZ061>065-074>080-084>089-190300-
SOUTHWEST KANSAS

CITY           SKY/WX    TMP DP  RH WIND       PRES   REMARKS
DODGE CITY     CLOUDY    58  37  45 W9        29.76S
ELKHART          N/A    N/A N/A N/A MISG        N/A
GARDEN CITY    PTCLDY    51  38  60 W6        29.77R
GREAT BEND     CLOUDY    52  46  82 E8        29.77R
LIBERAL        PTCLDY    52  34  50 W9        29.79R
PRATT          CLOUDY    55  46  71 W32G38    29.83R
$$

KSZ066>073-081>083-090>101-190300-
SOUTHEAST KANSAS

CITY           SKY/WX    TMP DP  RH WIND       PRES   REMARKS
CHANUTE        FAIR      62  59  90 E8        29.81R
COFFEYVILLE    PTCLDY    63  59  87 E8        29.78F
HUTCHINSON     LGT RAIN  54  50  86 NE17      29.76F
MEDICINE LODGE   N/A     58  52  80 E8        29.71F
NEWTON         CLOUDY    52  46  82 N10       29.86S
PARSONS        PTCLDY    64  61  90 E5        29.80F
WICHITA INTL   HAIL      55  52  89 N10       29.81S
WICHITA JABRA  TSTM      53  53 100 N16       29.80F
WICHITA MCCONL TSTM      54  52  92 N13       29.80F
WINFIELD       MOCLDY    67  58  72 E12       29.75F
$$

KSZ007>012-019>026-033>040-048>060-102>105-190300-
NORTHEAST KANSAS

CITY           SKY/WX    TMP DP  RH WIND       PRES   REMARKS
CONCORDIA      LGT RAIN  55  54  96 SE6       29.87R FOG
EMPORIA        CLOUDY    57  51  80 NW17G28   29.83R
LAWRENCE       MOCLDY    59  57  93 E6        29.84R
MANHATTAN      LGT RAIN  55  54  96 W7        29.85S FOG
MARYSVILLE     CLOUDY    61  54  77 W6        29.82R
OLATHE IND     CLOUDY    61  58  90 SE6       29.84S
OLATHE EXE     PTCLDY    60  57  89 SE5       29.83S
SALINA         RAIN      56  51  84 E17       29.81F
TOPEKA BILLARD CLEAR     61  58  90 E7        29.83S
TOPEKA FORBES  PTCLDY    62  58  86 SE8       29.81F
$$


USA.gov is the U.S. government's official web portal to all federal, state and local government web resources and services.